CAPE
15 17 20 16 6 0 0 0 4 11 4 0 0 0 0 0 0 0 0 0 0 0 0 0 0 0 0 0 0 0 0 0 0 0 0 0 0 4 0 0 0 0 0
0 1 1 1 3 0 0 0 0 1 0 0 0 0 0 0 0 0 0 0 0 0 0 0 0 0 0 0 0 0 0 0 0 2 0 0 0 0 0 0 0 0 0
0 0 0 1 0 0 1 1 6 0 0 0 0 0 0 0 0 0 0 0 0 0 0 0 0 0 0 0 0 0 0 0 0 0 0 0 0 0 0 0 0 12 0
12 44 31 23 12 10 2 2 10 1 1 0 0 0 0 0 0 0 0 0 0 0 0 0 0 0 0 0 0 0 0 0 0 0 0 0 0 1 1 2 0 0 0
33 31 61 49 45 7 1 1 12 5 1 0 1 0 0 0 0 0 0 0 0 1 2 2 0 0 0 0 0 0 0 0 0 0 0 0 0 0 13 13 19 24 6
76 74 47 51 35 46 25 6 2 1 14 5 0 0 0 0 0 0 0 0 0 2 13 15 9 7 0 0 0 0 0 0 2 3 1 5 35 23 19 27 24 28 20
29 8 34 24 5 7 15 5 11 15 6 5 5 5 5 8 0 0 0 0 0 1 18 58 29 10 5 12 3 0 0 11 24 36 49 43 27 25 53 46 42 41 30
22 11 8 13 11 19 17 23 24 18 20 17 20 20 21 21 0 0 0 0 0 12 30 69 75 32 29 3 3 0 0 1 19 14 47 30 22 24 34 39 26 21 19
30 25 22 20 18 30 33 37 41 46 38 35 37 24 31 36 2 0 0 5 17 29 40 87 81 40 3 0 0 0 0 5 1 20 4 0 0 1 7 30 27 26 19
22 38 31 22 29 37 47 53 35 27 22 20 35 120 90 41 13 0 0 19 43 23 89 102 43 1 0 0 0 0 0 0 6 2 11 33 39 30 28 45 44 35 32
32 34 33 44 40 79 74 84 138 116 96 132 110 168 155 143 153 0 0 9 17 8 15 19 25 0 0 0 0 0 0 0 1 13 18 25 12 24 43 42 62 48 22
27 27 34 39 58 70 161 156 199 316 231 277 365 523 496 268 0 0 0 0 0 0 0 13 9 0 0 0 0 0 0 0 0 36 41 26 16 38 41 37 66 53 37
43 45 44 72 88 102 208 301 437 480 672 522 692 633 721 412 307 0 0 0 0 0 0 0 0 0 0 0 0 0 0 3 44 24 29 27 25 44 64 66 45 43 26
40 65 99 250 277 452 227 240 338 466 180 446 32 1 15 22 65 52 9 23 2 1 0 0 0 0 0 2 1 6 18 17 20 22 47 25 38 46 51 43 40 30 18
75 162 194 198 466 288 464 628 431 62 17 0 0 0 1 26 15 0 0 0 0 0 0 0 0 2 12 9 12 11 23 18 19 18 39 34 35 31 40 25 46 29 18
168 215 346 291 300 514 553 371 0 0 0 0 0 0 6 0 0 0 0 0 0 0 0 0 2 10 10 8 8 8 9 17 15 12 48 41 39 61 49 22 31 31 13
520 482 379 247 491 514 346 336 263 0 0 0 0 0 0 0 0 0 0 0 0 0 0 5 11 12 10 9 8 8 8 12 18 13 10 31 34 27 26 39 28 27 21
472 134 310 286 297 284 308 177 257 69 85 116 0 0 0 0 0 0 0 0 0 6 5 12 13 14 15 14 12 8 8 14 10 4 8 16 25 31 16 21 23 27 23
289 300 285 117 32 51 62 147 53 56 50 10 56 0 0 0 0 0 0 0 2 17 20 23 26 24 27 19 16 8 12 9 2 6 6 6 26 28 22 15 16 3 3
124 0 0 0 20 70 46 34 34 35 9 13 9 4 0 0 0 4 0 3 27 23 26 26 22 24 27 21 15 7 4 5 8 4 5 5 17 24 12 16 23 14 11
32 40 0 0 12 17 6 51 32 6 6 7 4 0 0 0 0 1 14 23 24 25 21 25 22 22 25 20 8 4 3 4 5 4 4 5 5 22 9 18 26 22 16
21 17 18 23 36 58 63 38 29 11 12 7 6 1 0 0 1 10 21 18 18 25 27 30 24 23 24 23 7 5 4 4 5 6 4 1 5 10 15 19 24 21 23
8 12 22 34 39 7 23 28 17 16 22 21 26 26 0 9 25 17 14 12 27 20 24 30 28 26 27 23 13 6 4 5 5 2 0 1 7 11 13 20 22 19 19
0 11 23 31 41 48 49 49 29 2 14 30 21 8 20 15 19 18 14 10 20 9 17 18 31 30 31 20 8 4 2 0 0 0 0 3 8 9 12 14 16 17 18
1 3 25 39 40 63 72 40 25 13 23 37 50 18 3 15 25 25 30 23 17 5 16 21 58 29 21 11 5 4 0 0 0 0 0 5 8 9 13 15 19 11 11
29 29 36 41 47 38 54 60 21 51 71 48 40 21 14 20 32 37 1 14 16 25 34 27 24 14 13 4 2 0 0 0 0 0 0 6 11 11 13 13 8 10 10
CIN
-0 -0 -0 -0 -0 -0 -0 -0 -0 -0 -0 -0 -0 -0 -0 -0 -0 -0 -0 -0 -0 -0 -0 -0 -0 -0 -0 -0 -0 -0 -0 -0 -0 -0 -0 -0 -0 -0 -0 -0 -0 -0 -0
-0 -1 -0 -0 -0 -0 -0 -0 -0 -0 -0 -0 -0 -0 -0 -0 -0 -0 -0 -0 -0 -0 -0 -0 -0 -0 -0 -0 -0 -0 -0 -0 -0 -0 -0 -0 -0 -0 -0 -0 -0 -0 -0
-0 -0 -0 -0 -0 -0 -0 -0 -0 -0 -0 -0 -0 -0 -0 -0 -0 -0 -0 -0 -0 -0 -0 -0 -0 -0 -0 -0 -0 -0 -0 -0 -0 -0 -0 -0 -0 -0 -0 -0 -0 -0 -0
-3 -1 -0 -0 -1 -0 -0 -0 -0 -0 -0 -0 -0 -0 -0 -0 -0 -0 -0 -0 -0 -0 -0 -0 -0 -0 -0 -0 -0 -0 -0 -0 -0 -0 -0 -0 -0 -0 -0 -0 -0 -0 -0
-1 -3 -0 -15 -0 -1 -0 -0 -0 -0 -0 -1 -0 -0 -0 -0 -0 -0 -0 -0 -0 -0 -0 -0 -0 -0 -0 -0 -0 -0 -0 -0 -0 -0 -0 -0 -0 -0 -0 -0 -0 -0 -0
-0 -0 -2 -2 -1 -0 -0 -0 -0 -0 -0 -0 -0 -0 -0 -0 -0 -0 -0 -0 -0 -0 -0 -0 -0 -0 -0 -0 -0 -0 -0 -0 -0 -0 -0 -0 -0 -0 -0 -0 -0 -0 -0
-0 -0 -0 -0 -4 -0 -0 -0 -0 -0 -0 -0 -0 -0 -0 -0 -0 -0 -0 -0 -0 -0 -0 -0 -0 -0 -4 -0 -1 -1 -0 -2 -1 -0 -0 -0 -0 -0 -0 -0 -0 -0 -0
-0 -0 -0 -0 -0 -0 -0 -0 -0 -0 -0 -0 -0 -0 -0 -0 -3 -0 -0 -0 -0 -0 -0 -0 -0 -0 -0 -0 -0 -0 -0 -0 -0 -0 -0 -0 -0 -0 -0 -0 -0 -0 -0
-0 -0 -0 -0 -0 -0 -0 -0 -0 -0 -0 -0 -0 -0 -0 -0 -7 -0 -0 -0 -0 -0 -0 -0 -0 -0 -0 -0 -0 -0 -0 -0 -1 -9 -27 -0 -0 -47 -11 -0 -0 -0 -0
-0 -0 -0 -0 -0 -0 -0 -0 -0 -0 -0 -0 -0 -0 -1 -0 -6 -0 -0 -0 -0 -0 -0 -0 -34 -30 -0 -0 -0 -0 -0 -0 -0 -0 -0 -0 -1 -0 -1 -0 -0 -0 -0
-0 -0 -0 -0 -0 -3 -0 -0 -10 -3 -1 -1 -2 -1 -0 -1 -1 -0 -0 -8 -1 -0 -0 -0 -0 -0 -0 -0 -0 -0 -0 -0 -0 -0 -0 -0 -0 -0 -0 -0 -0 -1 -0
-0 -0 -0 -0 -4 -6 -5 -3 -0 -0 -0 -0 -0 -0 -0 -0 -0 -0 -0 -0 -0 -0 -0 -0 -0 -0 -0 -0 -0 -0 -0 -0 -0 -0 -0 -0 -0 -0 -0 -0 -0 -0 -0
-0 -49 -42 -18 -7 -5 -0 -0 -0 -0 -0 -0 -0 -0 -0 -0 -0 -0 -0 -0 -0 -0 -0 -0 -0 -0 -0 -0 -0 -0 -0 -7 -0 -0 -0 -0 -0 -0 -0 -0 -0 -0 -0
-24 -11 -3 -0 -1 -0 -0 -0 -0 -2 -23 -0 -11 -0 -11 -16 -0 -0 -0 -3 -3 -0 -0 -0 -0 -0 -0 -4 -4 -11 -0 -0 -0 -0 -0 -0 -0 -0 -0 -0 -0 -0 -0
-4 -0 -0 -0 -0 -0 -0 -0 -1 -9 -9 -0 -0 -0 -1 -0 -0 -0 -0 -0 -0 -0 -0 -0 -0 -0 -0 -0 -0 -0 -0 -0 -0 -0 -0 -0 -0 -0 -0 -0 -0 -0 -0
-0 -0 -1 -1 -7 -2 -0 -19 -0 -0 -0 -0 -0 -0 -2 -1 -0 -0 -0 -0 -0 -0 -0 -0 -0 -0 -0 -0 -0 -0 -0 -0 -0 -0 -0 -0 -0 -0 -0 -0 -0 -0 -0
-0 -0 -0 -4 -0 -0 -0 -0 -0 -0 -0 -0 -0 -0 -0 -0 -0 -0 -0 -0 -0 -0 -0 -0 -0 -0 -0 -0 -0 -0 -0 -0 -0 -0 -0 -0 -0 -0 -0 -0 -0 -0 -0
-0 -13 -0 -0 -2 -0 -0 -0 -0 -2 -0 -1 -0 -0 -0 -0 -0 -0 -0 -0 -0 -0 -0 -0 -0 -0 -0 -0 -0 -0 -0 -0 -0 -0 -0 -0 -0 -0 -0 -0 -0 -0 -0
-1 -4 -11 -52 -125 -16 -55 -12 -4 -9 -6 -0 -2 -0 -0 -0 -0 -0 -0 -0 -0 -0 -0 -0 -0 -0 -0 -0 -0 -0 -0 -0 -0 -0 -0 -0 -0 -0 -0 -0 -0 -0 -0
-74 -0 -0 -0 -38 -72 -86 -5 -85 -0 -0 -0 -0 -0 -1 -0 -0 -0 -19 -10 -0 -0 -0 -0 -0 -0 -0 -0 -0 -0 -0 -0 -0 -0 -0 -0 -0 -0 -0 -0 -0 -0 -0
-127 -123 -0 -0 -0 -0 -0 -58 -0 -0 -0 -0 -0 -0 -0 -0 -0 -0 -0 -0 -0 -0 -0 -0 -0 -0 -0 -0 -0 -0 -0 -0 -0 -0 -0 -0 -0 -0 -0 -0 -0 -0 -0
-123 -0 -0 -0 -23 -59 -36 -0 -0 -0 -0 -0 -0 -0 -0 -0 -0 -0 -0 -0 -0 -0 -0 -0 -0 -0 -0 -0 -0 -0 -0 -0 -0 -0 -0 -0 -0 -0 -0 -0 -0 -0 -0
-0 -0 -0 -0 -0 -14 -6 -0 -0 -0 -0 -0 -0 -0 -0 -0 -0 -0 -0 -0 -0 -0 -0 -0 -0 -0 -0 -0 -0 -0 -0 -0 -0 -0 -0 -0 -0 -0 -0 -0 -0 -0 -0
-0 -0 -0 -0 -0 -0 -0 -0 -0 -6 -0 -0 -0 -0 -0 -0 -0 -0 -0 -1 -0 -0 -0 -0 -0 -0 -0 -0 -0 -0 -0 -0 -0 -0 -0 -0 -0 -0 -0 -0 -0 -0 -0
-0 -0 -0 -0 -0 -0 -0 -0 -4 -6 -0 -0 -0 -0 -1 -0 -0 -0 -0 -0 -0 -0 -0 -0 -0 -0 -0 -0 -0 -0 -0 -0 -0 -0 -0 -0 -0 -0 -0 -0 -0 -0 -0
-0 -0 -0 -0 -0 -0 -0 -1 -0 -0 -0 -0 -0 -2 -0 -0 -0 -0 -5 -0 -0 -0 -0 -0 -0 -0 -0 -0 -1 -0 -0 -0 -0 -0 -0 -0 -0 -0 -0 -0 -0 -0 -0
Wind_Speed
10 9 9 9 7 6 6 7 7 6 6 5 4 3 4 5 4 4 4 4 5 5 5 5 6 6 7 6 7 7 7 8 10 11 12 12 15 14 13 11 14 14 12
13 11 10 6 7 6 6 6 5 4 4 4 6 4 3 5 4 4 3 4 4 4 4 4 5 5 6 6 7 8 8 9 10 13 12 12 14 13 13 15 12 14 14
9 8 7 5 5 4 4 4 5 5 4 3 1 3 5 5 5 3 3 3 2 2 4 5 6 6 7 7 8 8 9 9 10 12 13 11 11 12 12 13 13 13 12
5 5 6 4 3 3 3 3 6 5 6 7 7 5 4 4 4 3 1 1 4 5 4 5 5 6 7 8 8 10 9 11 11 12 13 13 12 12 11 13 13 12 14
5 5 5 7 6 4 5 4 7 4 3 4 6 6 4 4 5 3 5 5 4 5 5 7 7 6 11 8 7 9 11 11 12 13 13 14 13 13 14 12 14 14 15
8 8 7 7 8 9 7 6 7 9 8 8 7 6 6 7 10 6 4 7 8 8 9 8 8 11 1 10 13 11 11 13 14 13 14 15 16 14 14 14 15 15 18
9 5 7 5 4 5 7 8 9 10 9 8 8 8 8 9 10 11 11 8 9 10 11 10 9 8 8 10 7 11 15 16 17 16 17 15 16 15 16 17 17 16 18
8 8 9 8 7 7 8 8 9 8 9 8 9 10 9 9 12 12 12 10 11 12 13 12 9 10 11 8 12 14 15 16 16 14 15 14 16 16 16 17 18 19 16
7 6 7 8 9 8 9 9 8 9 9 10 9 10 10 10 11 13 10 10 12 13 11 9 9 12 8 5 8 14 17 16 16 16 15 21 24 15 16 14 13 14 15
8 5 3 5 6 6 7 8 7 8 9 9 10 8 9 11 7 14 14 9 10 11 10 8 9 5 8 5 9 14 17 16 16 18 17 16 15 16 20 14 11 12 14
5 4 5 6 6 7 7 8 7 9 10 8 10 9 10 10 10 7 9 7 10 10 9 9 6 10 7 9 10 12 14 16 18 16 14 13 11 11 11 11 12 12 14
4 5 5 5 6 4 8 8 10 9 10 10 11 10 10 9 1 8 9 8 7 9 11 10 10 9 13 13 11 17 17 16 14 14 12 11 10 11 12 12 15 15 14
6 7 6 7 8 10 10 9 8 9 8 9 8 9 7 5 4 5 7 8 10 9 9 9 12 12 18 18 22 26 22 13 12 13 13 12 11 12 15 13 15 18 19
7 8 8 8 10 9 8 9 8 6 4 4 5 6 7 4 4 6 6 7 13 11 10 8 13 16 23 22 16 14 9 11 12 12 12 12 10 11 12 11 13 15 15
10 9 10 10 9 10 8 6 5 4 3 2 3 3 2 5 1 2 5 8 8 9 10 11 11 11 10 10 10 11 10 11 11 11 12 11 11 12 12 11 12 14 14
10 10 8 9 7 4 6 3 4 5 7 4 2 3 2 2 6 1 3 5 7 9 9 11 11 10 10 10 11 11 11 12 11 12 12 11 11 10 10 12 11 13 14
9 9 9 6 7 6 5 5 4 5 5 6 7 6 6 4 3 4 5 8 13 11 10 11 10 9 10 10 11 11 12 11 12 12 12 12 12 11 11 12 12 13 14
7 4 7 8 6 4 6 5 5 5 7 9 10 10 11 9 9 10 11 8 12 7 11 9 9 9 9 10 10 11 12 10 11 11 13 12 12 11 11 12 13 14 15
6 8 3 6 7 4 5 5 5 6 6 4 6 10 10 12 13 13 9 8 11 8 8 8 9 9 9 10 10 11 12 10 10 12 12 12 11 11 10 12 13 16 17
8 5 2 7 5 5 6 5 8 4 5 6 4 4 10 10 8 7 11 12 8 8 9 9 9 10 9 10 10 10 10 11 11 11 11 12 11 11 12 13 13 14 14
6 3 2 7 8 4 5 10 5 4 6 5 4 4 8 4 8 9 8 7 7 8 8 9 10 10 10 9 10 10 11 11 11 11 11 12 13 12 11 11 12 13 13
6 6 5 8 9 8 9 6 6 7 7 7 6 7 10 6 7 9 7 7 8 8 8 9 10 10 10 9 9 11 11 11 11 10 11 13 13 12 11 11 12 12 12
8 9 8 8 8 5 6 8 8 9 9 8 8 7 10 9 7 7 6 8 9 9 10 11 11 11 10 9 9 10 11 10 10 11 12 13 12 12 11 11 12 11 11
10 10 9 9 9 9 9 10 9 11 11 10 8 8 6 8 8 8 8 7 6 7 9 11 11 14 11 9 9 10 8 8 8 10 15 13 12 12 11 11 11 13 11
10 11 11 10 11 8 10 12 10 13 12 10 10 9 6 8 8 7 7 4 7 5 11 12 10 13 12 14 14 14 8 3 9 5 9 13 14 16 12 10 11 12 13
10 11 12 10 9 11 12 10 7 10 11 9 6 8 6 5 8 5 5 7 8 9 12 11 12 14 15 12 9 4 2 1 5 5 9 10 11 11 10 12 14 11 12
Wind_Direction
132 111 119 100 89 85 106 120 116 128 126 103 94 101 97 85 83 102 103 91 79 58 35 24 24 11 1 2 341 339 331 320 310 307 313 314 316 308 310 309 310 298 294
63 63 73 83 82 88 92 97 99 115 123 129 125 145 119 112 109 112 78 89 82 73 39 23 14 5 346 348 332 342 316 320 314 305 307 309 303 305 313 309 311 304 307
95 112 121 128 106 82 87 72 63 54 43 68 54 205 155 156 157 170 129 110 81 40 24 357 356 353 347 337 329 329 323 322 319 304 305 299 306 302 313 306 304 304 308
59 66 85 67 61 76 90 160 169 181 186 185 186 192 194 202 195 193 158 359 4 0 339 334 310 295 337 329 318 324 322 324 309 306 305 306 307 311 313 320 309 308 308
167 188 188 187 191 153 161 174 225 200 214 219 199 210 239 252 238 32 344 319 311 293 297 283 291 329 275 265 292 315 313 312 311 306 305 310 309 321 307 312 303 308 301
192 207 209 188 194 194 163 192 194 215 217 223 232 233 233 252 126 155 247 287 301 292 286 289 295 280 159 214 252 260 277 293 299 300 303 305 296 317 313 314 309 301 298
190 226 175 158 222 230 201 210 223 218 213 235 247 242 241 248 178 196 207 253 273 280 285 277 281 296 323 302 320 308 308 297 279 282 287 292 311 317 312 308 305 296 289
180 194 201 190 214 212 228 225 217 228 241 244 244 237 242 243 198 204 209 253 270 273 270 270 279 287 289 292 289 295 305 305 300 298 297 304 305 307 299 299 294 285 282
198 194 206 209 198 204 215 217 219 232 228 226 238 249 250 256 194 200 196 259 270 279 276 273 273 283 306 119 294 299 307 302 299 295 314 307 288 260 288 291 283 287 286
200 198 205 211 222 223 227 222 231 230 240 249 247 249 254 260 236 189 201 263 277 289 283 282 260 298 72 22 314 310 305 303 310 309 295 287 295 309 295 286 292 292 294
206 190 195 205 212 234 247 243 239 239 256 246 263 272 275 274 273 180 191 277 292 285 291 301 293 128 185 218 249 303 294 293 295 293 290 290 311 307 295 297 296 297 291
191 211 205 212 238 240 236 246 253 257 262 261 264 264 267 265 118 157 187 225 303 290 286 290 301 351 330 302 275 273 266 272 283 275 282 302 320 305 304 300 303 303 289
213 213 232 251 252 247 256 267 269 264 250 264 264 270 272 296 291 264 223 223 240 251 271 302 313 298 278 273 252 255 261 268 284 309 311 309 318 304 300 300 312 303 295
247 257 256 259 258 271 273 274 277 306 354 342 30 24 355 347 331 329 285 253 241 237 264 300 311 286 268 259 277 275 299 310 305 299 305 319 317 310 301 325 314 312 305
249 251 254 266 270 260 268 283 273 195 306 175 211 194 230 260 314 356 332 327 337 340 328 303 293 283 298 310 311 315 308 305 312 312 316 315 309 313 312 324 315 311 307
251 256 255 251 249 259 273 221 64 96 171 169 133 284 257 199 112 253 302 309 292 278 293 298 286 303 314 319 318 313 311 311 325 322 305 315 316 311 328 320 321 315 311
257 293 293 314 306 291 289 289 274 183 215 202 200 201 220 338 259 258 263 260 260 257 261 277 297 317 320 317 314 314 312 323 324 309 325 311 315 324 328 325 324 316 316
267 235 275 257 228 242 256 280 257 238 232 192 205 220 211 204 212 228 241 270 272 217 238 284 313 309 311 313 314 316 311 321 317 327 309 317 315 326 330 329 324 321 319
282 263 313 313 308 356 272 225 259 248 262 316 162 189 182 204 218 223 222 252 280 302 301 302 304 310 313 312 315 312 308 317 326 311 316 321 319 329 335 333 321 321 318
258 141 285 284 268 231 233 231 245 212 241 255 271 285 162 183 262 246 211 232 273 301 307 310 315 313 312 314 311 309 315 325 318 316 321 323 325 331 342 333 324 322 323
278 197 124 278 271 272 266 260 246 250 265 268 279 75 103 281 293 277 273 284 298 305 307 312 309 316 309 314 319 319 323 317 314 322 324 326 330 328 345 329 322 320 319
266 257 253 240 252 216 240 258 248 244 252 258 257 151 159 234 261 262 290 306 309 313 312 312 308 308 310 320 325 319 313 310 315 325 337 329 320 339 333 325 319 320 322
258 264 265 254 257 251 252 249 267 266 256 254 251 252 189 229 259 297 302 298 305 314 315 313 305 299 308 327 320 305 306 315 344 343 327 322 328 328 323 317 318 319 326
271 273 267 269 266 253 250 244 239 241 263 263 270 270 282 285 276 276 280 278 289 291 291 292 294 298 309 317 309 301 353 18 341 336 334 318 317 317 317 313 315 318 321
257 269 262 262 267 265 245 246 246 261 268 243 234 238 241 258 264 265 266 279 294 294 282 287 284 304 316 317 305 305 94 75 354 338 321 318 308 310 306 312 317 318 317
255 264 271 274 271 268 271 264 238 271 275 255 253 252 236 265 266 290 300 293 290 277 282 292 299 315 308 305 338 60 183 166 338 321 306 306 300 301 306 312 313 313 315